This demonstration page uses our WeatherBlox Daily Observations layout. Learn more.

Left ArrowRight Arrow

44.8408, -93.29828

Hourly Observations for March 22, 2018

Temp ( °F °C ) Dew Point ( °F °C ) Humidity (%) Winds ( mph kmh ) Pressure ( in mb ) Visibility ( mi km ) Precip ( " mm )
12:53 am 00:53 Cloudy 35 1.7 26 -3.3 70 70 Calm 30.31 1026 10 16 0.00 0.00
1:53 am 01:53 Cloudy 34 1.1 27 -2.8 76 76 NNE 3 6 30.31 1027 10 16 0.00 0.00
2:53 am 02:53 Cloudy 34 1.1 26 -3.3 73 73 Calm 30.32 1027 10 16 0.00 0.00
3:53 am 03:53 Cloudy 35 1.7 26 -3.3 70 70 Calm 30.32 1027 10 16 0.00 0.00
4:53 am 04:53 Cloudy 34 1.1 26 -3.3 73 73 Calm 30.32 1027 8 13 0.00 0.00
5:53 am 05:53 Cloudy 34 1.1 26 -3.3 73 73 Calm 30.34 1027 8 13 0.00 0.00
6:53 am 06:53 Cloudy 33 0.6 27 -2.8 78 78 Calm 30.36 1028 8 13 0.00 0.00
7:53 am 07:53 Cloudy 33 0.6 26 -3.3 75 75 ESE 6 9 30.38 1029 7 11 0.00 0.00
8:37 am 08:37 Cloudy 34 1.1 25 -3.9 70 70 E 7 11 30.39 1029 9 14 0.00 0.00
8:53 am 08:53 Cloudy 34 1.1 25 -3.9 70 70 ESE 5 7 30.39 1029 10 16 0.00 0.00
9:53 am 09:53 Cloudy 35 1.7 26 -3.3 70 70 ESE 8 13 30.40 1029 10 16 0.00 0.00
10:20 am 10:20 Cloudy 36 2.2 26 -3.3 67 67 E 8 13 30.39 1029 10 16 0.00 0.00
10:53 am 10:53 Cloudy 37 2.8 26 -3.3 65 65 ENE 6 9 30.40 1030 10 16 0.00 0.00
11:53 am 11:53 Cloudy 39 3.9 26 -3.3 60 60 Calm 30.40 1030 10 16 0.00 0.00
12:53 pm 12:53 Cloudy 40 4.4 27 -2.8 60 60 VRB 3 6 30.39 1029 10 16 0.00 0.00
1:53 pm 13:53 Cloudy 42 5.6 28 -2.2 58 58 ENE 6 9 30.37 1029 10 16 0.00 0.00
2:53 pm 14:53 Cloudy 43 6.1 27 -2.8 53 53 NE 7 11 30.37 1028 10 16 0.00 0.00
3:53 pm 15:53 Cloudy 42 5.6 26 -3.3 53 53 ENE 8 13 30.35 1028 10 16 0.00 0.00
4:53 pm 16:53 Cloudy 42 5.6 26 -3.3 53 53 NNE 8 13 30.35 1028 10 16 0.00 0.00
5:53 pm 17:53 Partly Cloudy 42 5.6 26 -3.3 53 53 NNE 7 11 30.35 1028 10 16 0.00 0.00
6:53 pm 18:53 Mostly Sunny 41 5 26 -3.3 55 55 NE 7 11 30.37 1028 10 16 0.00 0.00
7:53 pm 19:53 Mostly Clear 39 3.9 26 -3.3 60 60 NE 7 11 30.37 1028 10 16 0.00 0.00
8:53 pm 20:53 Clear 37 2.8 26 -3.3 65 65 VRB 6 9 30.39 1029 10 16 0.00 0.00
9:53 pm 21:53 Clear 35 1.7 25 -3.9 67 67 N 6 9 30.41 1030 10 16 0.00 0.00
10:53 pm 22:53 Clear 35 1.7 26 -3.3 70 70 ENE 3 6 30.40 1030 10 16 0.00 0.00
11:53 pm 23:53 Clear 33 0.6 25 -3.9 72 72 N 3 6 30.40 1030 10 16 0.00 0.00

Powered by AerisWeather